Location: Unspecified
(40.8819°N, 0.0000°E)
Time: 16:59:23
(UTC+00:00)

PCSat - Pass Details

Date: 15 April 2024
Orbit: 783 x 792 km, 67.1° (Epoch: 22 May)

Event Time Altitude Azimuth Distance (km) Brightness Sun altitude
Rises 04:38:25 0° 339° (NNW) 3,298 12.8 -8.4°
Reaches altitude 10° 04:41:13 10° 351° (N) 2,366 12.2 -7.9°
Maximum altitude 04:45:47 27° 49° (NE) 1,484 11.9 -7.1°
Drops below altitude 10° 04:50:21 10° 107° (ESE) 2,356 13.0 -6.3°
Sets 04:53:07 0° 119° (ESE) 3,281 13.5 -5.8°
